DW4669 Weather Reports


Display with metric or nautical units.
time (UTC)temp
F
wind
direction
speed
MPH
gust
MPH
rain 1hr
in
rain 24hr
in
rain mn
in
humidity
%
barometer
mb
20260507164016 59 306 3.0 9.0 0.00 0.18 0.05 49 1009.7
20260507163513 58 289 4.0 9.0 0.00 0.18 0.05 48 1009.7
20260507163030 58 335 4.0 8.0 0.00 0.18 0.05 51 1009.6
20260507162513 57 310 3.0 8.0 0.00 0.18 0.05 48 1009.8
20260507162012 57 268 3.0 12.0 0.00 0.18 0.05 49 1009.7
20260507161530 57 306 2.0 12.0 0.00 0.18 0.05 47 1009.8
20260507161010 57 338 2.0 9.0 0.00 0.18 0.05 53 1009.9
20260507160514 57 337 3.0 9.0 0.00 0.18 0.05 48 1010.1
20260507160028 57 289 3.0 9.0 0.00 0.18 0.05 46 1010.0
20260507155513 57 0 2.0 8.0 0.00 0.18 0.05 54 1010.2
20260507155013 56 295 2.0 11.0 0.00 0.18 0.05 50 1010.3
20260507154532 56 304 1.0 11.0 0.00 0.18 0.05 52 1010.4
20260507154014 56 314 4.0 11.0 0.00 0.18 0.05 45 1010.6
20260507153511 56 332 4.0 9.0 0.00 0.18 0.05 48 1010.7
20260507153033 56 325 3.0 9.0 0.00 0.18 0.05 53 1010.5
20260507152512 56 267 3.0 9.0 0.00 0.18 0.05 51 1010.6
20260507152014 56 344 3.0 9.0 0.00 0.18 0.05 52 1010.6
20260507151531 56 315 4.0 9.0 0.00 0.18 0.05 51 1010.6
20260507151014 55 308 4.0 9.0 0.00 0.18 0.05 51 1010.7
20260507150514 55 323 3.0 9.0 0.00 0.18 0.05 53 1010.6
20260507150028 55 313 2.0 9.0 0.00 0.18 0.05 49 1010.7
20260507145513 54 309 3.0 9.0 0.00 0.18 0.05 49 1010.7
20260507145015 55 340 3.0 11.0 0.00 0.18 0.05 48 1010.7
20260507144528 55 288 1.0 11.0 0.00 0.18 0.05 51 1010.6
20260507144011 54 337 4.0 11.0 0.00 0.18 0.05 51 1010.7
20260507143516 54 298 2.0 7.0 0.00 0.18 0.05 51 1010.7
20260507143028 55 321 2.0 8.0 0.00 0.18 0.05 55 1010.7
20260507142513 54 313 3.0 12.0 0.00 0.18 0.05 51 1010.7
20260507142014 54 313 3.0 12.0 0.00 0.18 0.05 50 1010.7
20260507141530 54 296 2.0 10.0 0.00 0.18 0.05 55 1010.8
20260507141013 54 312 2.0 11.0 0.00 0.18 0.05 55 1010.9
20260507140515 53 313 2.0 11.0 0.00 0.18 0.05 55 1011.0
20260507140036 53 302 5.0 11.0 0.00 0.18 0.05 53 1011.1
20260507135512 53 317 4.0 12.0 0.00 0.18 0.05 50 1011.1
20260507135011 52 352 4.0 12.0 0.00 0.18 0.05 51 1011.1
20260507134528 52 350 5.0 12.0 0.00 0.18 0.05 52 1011.1
20260507134014 52 5 3.0 9.0 0.00 0.18 0.05 58 1011.1
20260507133511 52 336 4.0 13.0 0.00 0.18 0.05 56 1011.0
20260507133030 52 316 4.0 13.0 0.00 0.18 0.05 57 1011.1
20260507132513 52 315 5.0 12.0 0.00 0.18 0.05 54 1011.0
20260507132013 52 22 4.0 10.0 0.00 0.18 0.05 58 1010.9
20260507131527 52 321 4.0 10.0 0.00 0.18 0.05 57 1010.9
20260507131012 51 340 3.0 10.0 0.00 0.18 0.05 63 1010.8
20260507130511 51 329 4.0 10.0 0.00 0.18 0.05 56 1010.8
20260507130027 51 324 4.0 10.0 0.00 0.18 0.05 63 1010.7
20260507125517 50 323 3.0 10.0 0.00 0.18 0.05 64 1010.6
20260507125011 50 312 4.0 10.0 0.00 0.18 0.05 64 1010.6
20260507124536 50 304 3.0 10.0 0.00 0.18 0.05 68 1010.6
20260507124011 49 309 3.0 10.0 0.00 0.18 0.05 65 1010.5
20260507123514 49 350 4.0 10.0 0.00 0.18 0.05 65 1010.6
20260507123033 49 350 3.0 10.0 0.00 0.18 0.05 66 1010.6
20260507122510 48 322 3.0 10.0 0.00 0.18 0.05 66 1010.5
20260507122011 48 331 2.0 10.0 0.00 0.18 0.05 68 1010.6
20260507121538 48 327 3.0 9.0 0.00 0.18 0.05 71 1010.6
20260507121016 48 323 1.0 9.0 0.00 0.18 0.05 73 1010.4
20260507120511 48 336 2.0 9.0 0.00 0.18 0.05 72 1010.6
20260507120030 48 325 3.0 10.0 0.00 0.18 0.05 72 1010.6
20260507115514 48 315 4.0 10.0 0.00 0.18 0.05 72 1010.6
20260507115010 48 324 3.0 9.0 0.00 0.18 0.05 74 1010.6
20260507114530 48 308 2.0 15.0 0.00 0.18 0.05 75 1010.5
20260507114013 48 314 5.0 15.0 0.00 0.18 0.05 72 1010.4
20260507113514 47 339 3.0 14.0 0.00 0.18 0.05 74 1010.4
20260507113035 47 313 3.0 14.0 0.00 0.18 0.05 77 1010.4
20260507112514 47 316 4.0 12.0 0.00 0.18 0.05 81 1010.3
20260507112017 47 0 3.0 11.0 0.00 0.18 0.05 83 1010.4
20260507111530 46 319 2.0 8.0 0.00 0.18 0.05 88 1010.3
20260507111011 46 328 3.0 8.0 0.00 0.18 0.05 89 1010.2
20260507110516 46 0 0.0 4.0 0.00 0.18 0.05 92 1010.2
20260507110029 46 0 0.0 5.0 0.00 0.18 0.05 92 1010.0
20260507105512 45 0 0.0 9.0 0.00 0.18 0.05 93 1009.9
20260507105012 45 0 0.0 9.0 0.00 0.18 0.05 94 1009.8
20260507104528 45 0 1.0 9.0 0.00 0.18 0.05 94 1010.0
20260507104015 45 0 0.0 0.0 0.00 0.18 0.05 94 1009.8
20260507103513 45 0 0.0 0.0 0.00 0.18 0.05 94 1009.7
20260507103030 45 0 0.0 0.0 0.00 0.18 0.05 94 1009.6
20260507102517 45 0 0.0 0.0 0.00 0.18 0.05 94 1009.4
20260507102011 45 0 0.0 0.0 0.00 0.18 0.05 94 1009.4
20260507101534 45 0 0.0 0.0 0.00 0.18 0.05 94 1009.4
20260507101011 45 0 0.0 0.0 0.00 0.18 0.05 94 1009.4
20260507100511 45 0 0.0 0.0 0.00 0.18 0.05 94 1009.4
20260507100035 45 0 0.0 0.0 0.00 0.18 0.05 94 1009.4
20260507095513 45 0 0.0 0.0 0.00 0.18 0.05 94 1009.3
20260507095011 45 0 0.0 0.0 0.00 0.18 0.05 94 1009.3
20260507094529 45 0 0.0 0.0 0.01 0.18 0.05 94 1009.1
20260507094013 45 0 0.0 0.0 0.01 0.18 0.05 94 1009.2
20260507093510 45 0 0.0 0.0 0.01 0.18 0.05 93 1009.0
20260507093037 45 0 0.0 0.0 0.01 0.18 0.05 93 1009.0
20260507092512 45 0 0.0 0.0 0.01 0.18 0.05 93 1008.9
20260507092011 45 0 0.0 0.0 0.01 0.18 0.05 93 1008.8
20260507091530 45 0 0.0 0.0 0.01 0.18 0.05 92 1008.9
20260507091012 45 0 0.0 0.0 0.01 0.18 0.05 92 1008.9
20260507090512 46 0 0.0 0.0 0.01 0.18 0.05 92 1009.0
20260507090032 46 0 0.0 2.0 0.01 0.18 0.05 91 1009.2
20260507085510 46 0 0.0 2.0 0.01 0.18 0.05 91 1009.2
20260507085012 47 0 0.0 0.0 0.01 0.18 0.05 90 1009.1
20260507084529 47 0 0.0 0.0 0.00 0.17 0.04 90 1009.0
20260507084017 47 0 0.0 3.0 0.00 0.17 0.04 90 1009.1
20260507083510 47 0 0.0 5.0 0.00 0.17 0.04 90 1009.1
20260507083037 47 0 1.0 5.0 0.01 0.17 0.04 91 1009.2
20260507082510 47 0 0.0 4.0 0.01 0.17 0.04 92 1009.3
20260507082013 47 0 0.0 4.0 0.01 0.17 0.04 92 1009.2
20260507081530 47 0 0.0 2.0 0.01 0.17 0.04 92 1009.2
20260507081013 48 0 0.0 2.0 0.01 0.17 0.04 92 1009.4
20260507080511 48 0 0.0 2.0 0.02 0.17 0.04 92 1009.3
20260507080029 48 0 0.0 2.0 0.02 0.17 0.04 92 1009.5
20260507075510 48 0 0.0 0.0 0.02 0.17 0.04 92 1009.3
20260507075013 48 0 0.0 3.0 0.02 0.17 0.04 92 1009.3
20260507074530 48 0 0.0 6.0 0.02 0.17 0.04 92 1009.1
20260507074010 48 0 0.0 6.0 0.02 0.17 0.04 92 1009.4
20260507073515 48 0 0.0 3.0 0.02 0.17 0.04 92 1009.7
20260507073029 48 243 0.0 3.0 0.01 0.16 0.03 91 1009.4
20260507072510 48 0 0.0 3.0 0.01 0.16 0.03 91 1009.5
20260507072012 48 0 0.0 1.0 0.01 0.16 0.03 91 1009.6
20260507071540 48 0 0.0 3.0 0.01 0.16 0.03 91 1009.3
20260507071017 49 0 0.0 3.0 0.01 0.15 0.02 91 1009.4
20260507070511 49 0 0.0 2.0 0.01 0.15 0.02 91 1009.5
20260507070034 49 0 0.0 2.0 0.01 0.15 0.02 91 1009.6
20260507065517 49 0 0.0 3.0 0.01 0.15 0.02 91 1009.5
20260507065010 49 0 0.0 3.0 0.01 0.15 0.02 90 1009.4
20260507064528 49 273 0.0 1.0 0.01 0.15 0.02 91 1009.5
20260507064012 49 0 0.0 1.0 0.01 0.15 0.02 90 1009.2
20260507063512 49 0 0.0 1.0 0.02 0.15 0.02 90 1008.9
20260507063032 49 0 0.0 1.0 0.02 0.15 0.02 90 1009.0
20260507062510 49 0 0.0 1.0 0.02 0.15 0.02 90 1009.0
20260507062012 49 0 0.0 1.0 0.02 0.15 0.02 90 1009.2
20260507061530 49 0 0.0 3.0 0.02 0.15 0.02 90 1009.2
20260507061015 49 0 0.0 3.0 0.01 0.14 0.01 89 1008.9
20260507060510 49 0 0.0 1.0 0.01 0.14 0.01 89 1009.0
20260507060030 50 0 0.0 3.0 0.01 0.14 0.01 89 1008.9
20260507055512 50 0 0.0 3.0 0.01 0.14 0.01 89 1008.7
20260507055010 50 0 0.0 3.0 0.01 0.14 0.01 88 1008.7
20260507054530 50 0 0.0 4.0 0.01 0.14 0.01 88 1008.9
20260507054013 50 0 0.0 4.0 0.01 0.14 0.01 87 1008.3
20260507053514 50 0 0.0 5.0 0.00 0.13 0.00 86 1008.4
20260507053029 50 263 1.0 5.0 0.00 0.13 0.00 86 1008.3
20260507052510 51 0 1.0 5.0 0.00 0.13 0.00 85 1008.3
20260507052013 51 0 0.0 5.0 0.00 0.13 0.00 86 1008.2
20260507051528 51 311 0.0 5.0 0.00 0.13 0.00 86 1008.6
20260507051013 51 0 1.0 5.0 0.00 0.13 0.00 85 1008.5
20260507050512 51 0 0.0 8.0 0.00 0.13 0.00 85 1008.7
20260507050030 51 0 0.0 8.0 0.00 0.13 0.00 85 1008.6
20260507045513 51 255 0.0 7.0 0.00 0.13 0.00 85 1008.8
20260507045014 51 250 1.0 7.0 0.00 0.13 0.00 85 1008.9
20260507044530 51 294 1.0 7.0 0.00 0.13 0.00 85 1008.9
20260507044010 51 292 1.0 5.0 0.00 0.13 0.00 85 1009.1
20260507043510 51 322 0.0 7.0 0.00 0.13 0.00 85 1008.9
20260507043036 52 0 0.0 7.0 0.00 0.13 0.00 85 1009.0
20260507042512 52 0 1.0 7.0 0.00 0.13 0.00 85 1009.0
20260507042012 52 288 1.0 7.0 0.00 0.13 0.00 85 1008.9
20260507041528 52 293 2.0 9.0 0.00 0.13 0.00 85 1009.1
20260507041013 52 282 0.0 9.0 0.00 0.13 0.00 85 1008.7
20260507040511 52 271 3.0 9.0 0.00 0.13 0.00 84 1008.6
20260507040032 52 295 1.0 7.0 0.00 0.13 0.00 85 1008.8
20260507035511 52 285 3.0 7.0 0.00 0.13 0.13 84 1008.8
20260507035013 52 314 2.0 6.0 0.00 0.13 0.13 85 1008.9
20260507034530 52 292 1.0 5.0 0.00 0.13 0.13 85 1008.8
20260507034013 52 300 2.0 4.0 0.00 0.13 0.13 85 1008.8
20260507033517 52 288 1.0 4.0 0.00 0.13 0.13 85 1008.9
20260507033028 53 247 0.0 1.0 0.00 0.13 0.13 85 1008.8
20260507032515 53 0 0.0 3.0 0.00 0.13 0.13 85 1008.9
20260507032017 53 0 0.0 3.0 0.00 0.13 0.13 85 1008.8
20260507031531 53 0 0.0 2.0 0.00 0.13 0.13 85 1008.6
20260507031011 53 0 0.0 3.0 0.00 0.13 0.13 84 1008.7
20260507030512 53 247 0.0 3.0 0.00 0.13 0.13 84 1008.8
20260507030031 53 0 0.0 4.0 0.00 0.13 0.13 84 1008.8
20260507025511 53 0 1.0 4.0 0.00 0.13 0.13 84 1009.1
20260507025013 53 271 1.0 3.0 0.00 0.13 0.13 84 1009.2
20260507024528 53 0 0.0 2.0 0.00 0.13 0.13 85 1009.2
20260507024010 54 0 0.0 3.0 0.00 0.13 0.13 84 1009.2
20260507023519 54 0 0.0 3.0 0.00 0.13 0.13 84 1009.2
20260507023031 54 0 0.0 4.0 0.00 0.13 0.13 85 1009.1
20260507022510 54 249 0.0 4.0 0.00 0.13 0.13 85 1009.1
20260507022011 54 244 0.0 7.0 0.00 0.13 0.13 85 1009.4
20260507021528 54 0 1.0 7.0 0.00 0.13 0.13 85 1009.5
20260507021015 54 316 1.0 4.0 0.00 0.13 0.13 85 1009.3
20260507020514 54 0 0.0 4.0 0.00 0.13 0.13 85 1009.1
20260507020028 55 267 0.0 6.0 0.00 0.13 0.13 85 1009.0
20260507015510 55 245 2.0 6.0 0.00 0.13 0.13 84 1009.1
20260507015017 55 0 0.0 4.0 0.00 0.13 0.13 85 1008.9
20260507014529 55 0 0.0 6.0 0.00 0.13 0.13 83 1008.7
20260507014010 55 300 1.0 6.0 0.00 0.13 0.13 84 1008.8
20260507013510 55 236 1.0 5.0 0.00 0.13 0.13 84 1008.8
20260507013036 55 232 0.0 6.0 0.00 0.13 0.13 84 1008.9
20260507012516 55 0 1.0 8.0 0.00 0.13 0.13 83 1008.8
20260507012012 56 313 2.0 8.0 0.00 0.13 0.13 84 1008.7
20260507011537 56 5 0.0 6.0 0.00 0.13 0.13 85 1008.7
20260507011010 56 0 0.0 6.0 0.00 0.13 0.13 85 1008.6
20260507010513 56 0 1.0 7.0 0.00 0.13 0.13 85 1008.4
20260507010030 56 223 0.0 7.0 0.01 0.13 0.13 86 1008.2
20260507005515 56 295 0.0 12.0 0.01 0.13 0.13 86 1008.3
20260507005012 56 320 2.0 12.0 0.01 0.13 0.13 86 1008.0
20260507004528 56 308 1.0 8.0 0.01 0.13 0.13 86 1007.7
20260507004013 57 286 2.0 6.0 0.01 0.13 0.13 87 1007.7
20260507003514 57 304 1.0 6.0 0.01 0.13 0.13 87 1007.5
20260507003027 57 302 1.0 6.0 0.01 0.13 0.13 87 1007.5
20260507002513 57 0 2.0 6.0 0.01 0.13 0.13 88 1007.4
20260507002014 57 294 1.0 5.0 0.01 0.13 0.13 88 1007.3
20260507001538 58 311 1.0 10.0 0.01 0.13 0.13 88 1007.2
20260507001012 58 0 2.0 12.0 0.01 0.13 0.13 87 1007.3
20260507000514 59 247 4.0 16.0 0.01 0.13 0.13 87 1007.3
20260507000030 60 309 6.0 16.0 0.00 0.12 0.12 87 1007.2
20260506235512 62 315 3.0 8.0 0.00 0.12 0.12 92 1007.0
20260506235012 62 277 1.0 6.0 0.00 0.12 0.12 91 1006.5
20260506234541 62 0 1.0 6.0 0.00 0.12 0.12 91 1006.1
20260506234013 62 176 1.0 8.0 0.00 0.12 0.12 91 1006.1
20260506233514 62 0 1.0 8.0 0.00 0.12 0.12 90 1006.2
20260506233033 62 224 0.0 2.0 0.00 0.12 0.12 90 1006.2
20260506232511 62 0 0.0 6.0 0.00 0.12 0.12 90 1006.1
20260506232013 62 0 0.0 6.0 0.00 0.12 0.12 90 1006.0
20260506231534 62 230 0.0 6.0 0.00 0.12 0.12 90 1006.0
20260506231014 62 0 1.0 8.0 0.00 0.12 0.12 90 1005.9
20260506230511 62 185 2.0 10.0 0.00 0.12 0.12 90 1005.9
20260506230029 62 0 1.0 10.0 0.00 0.12 0.12 90 1006.0
20260506225513 62 211 0.0 8.0 0.00 0.12 0.12 90 1005.7
20260506225013 62 194 2.0 8.0 0.00 0.12 0.12 90 1005.8
20260506224530 62 198 1.0 7.0 0.00 0.12 0.12 90 1005.9
20260506224014 62 0 1.0 7.0 0.00 0.12 0.12 90 1006.0
20260506223511 62 202 0.0 5.0 0.00 0.12 0.12 91 1005.9
20260506223031 62 0 0.0 5.0 0.00 0.12 0.12 91 1005.8
20260506222514 62 201 1.0 5.0 0.00 0.12 0.12 92 1005.8
20260506222012 62 0 1.0 10.0 0.00 0.12 0.12 91 1005.6
20260506221527 62 188 1.0 10.0 0.00 0.12 0.12 91 1005.6
20260506221012 62 327 1.0 8.0 0.00 0.12 0.12 91 1005.7
20260506220512 62 182 1.0 8.0 0.00 0.12 0.12 92 1005.7
20260506220028 62 275 1.0 7.0 0.00 0.12 0.12 92 1005.5
20260506215513 62 0 1.0 5.0 0.00 0.12 0.12 91 1005.6
20260506215012 62 244 0.0 9.0 0.00 0.12 0.12 91 1005.6
20260506214531 62 0 0.0 9.0 0.00 0.12 0.12 91 1005.6
20260506214013 62 255 0.0 9.0 0.00 0.12 0.12 91 1005.6
20260506213512 62 321 2.0 8.0 0.00 0.12 0.12 91 1005.7
20260506213030 62 257 1.0 8.0 0.00 0.12 0.12 90 1005.6
20260506212517 62 341 1.0 8.0 0.00 0.12 0.12 90 1005.6
20260506212014 62 351 0.0 6.0 0.00 0.12 0.12 90 1005.6
20260506211529 62 0 1.0 8.0 0.00 0.12 0.12 91 1005.5
20260506211014 62 143 2.0 8.0 0.00 0.12 0.12 91 1005.3
20260506210514 62 0 1.0 8.0 0.00 0.12 0.12 91 1005.2
20260506210031 62 0 0.0 8.0 0.00 0.12 0.12 91 1005.4
20260506205515 62 157 0.0 8.0 0.00 0.12 0.12 91 1005.4
20260506205013 62 272 1.0 8.0 0.00 0.12 0.12 91 1005.4
20260506204534 62 273 0.0 5.0 0.00 0.12 0.12 91 1005.4
20260506204016 62 0 0.0 6.0 0.00 0.12 0.12 91 1005.4
20260506203516 62 0 0.0 6.0 0.00 0.12 0.12 91 1005.4
20260506203048 63 0 1.0 6.0 0.00 0.12 0.12 92 1005.3
20260506202512 63 0 0.0 2.0 0.00 0.12 0.12 92 1005.3
20260506202011 63 0 0.0 3.0 0.01 0.12 0.12 92 1005.3
20260506201528 63 279 0.0 3.0 0.01 0.12 0.12 92 1005.3
20260506201012 63 251 0.0 3.0 0.01 0.12 0.12 93 1005.2
20260506200513 62 250 0.0 3.0 0.01 0.12 0.12 93 1005.3
20260506200043 62 0 0.0 5.0 0.01 0.12 0.12 93 1005.5
20260506195511 62 0 0.0 5.0 0.01 0.12 0.12 93 1005.6
20260506195012 62 0 0.0 6.0 0.01 0.12 0.12 92 1005.6
20260506194528 62 0 1.0 6.0 0.01 0.12 0.12 92 1005.8
20260506194010 63 0 0.0 3.0 0.01 0.12 0.12 92 1005.7
20260506193513 63 225 0.0 4.0 0.01 0.12 0.12 93 1005.8
20260506193029 63 0 0.0 4.0 0.01 0.12 0.12 93 1005.8
20260506192511 62 0 0.0 5.0 0.02 0.12 0.12 93 1005.8
20260506192014 62 0 1.0 5.0 0.01 0.11 0.11 93 1006.0
20260506191531 62 0 0.0 4.0 0.01 0.11 0.11 93 1006.0
20260506191010 62 0 1.0 4.0 0.01 0.11 0.11 93 1006.1
20260506190514 62 0 0.0 6.0 0.01 0.11 0.11 93 1006.1
20260506190036 62 211 0.0 6.0 0.01 0.11 0.11 93 1006.1
20260506185510 62 0 0.0 4.0 0.01 0.11 0.11 93 1006.2
20260506185011 62 0 1.0 4.0 0.01 0.11 0.11 92 1006.2
20260506184528 62 0 0.0 6.0 0.02 0.11 0.11 93 1006.3
20260506184012 61 0 0.0 6.0 0.03 0.11 0.11 92 1006.4
20260506183512 61 0 0.0 5.0 0.04 0.11 0.11 92 1006.4
20260506183030 61 0 0.0 8.0 0.05 0.11 0.11 92 1006.5
20260506182512 61 0 0.0 9.0 0.04 0.10 0.10 92 1006.6
20260506182017 61 229 2.0 9.0 0.05 0.10 0.10 92 1006.6
20260506181528 61 223 0.0 5.0 0.06 0.10 0.10 92 1006.6
20260506181013 61 0 0.0 8.0 0.07 0.10 0.10 92 1006.6
20260506180512 61 213 1.0 10.0 0.07 0.10 0.10 92 1006.6
20260506180029 61 0 0.0 11.0 0.07 0.10 0.10 92 1006.6
20260506175512 61 0 1.0 11.0 0.07 0.10 0.10 91 1006.7
20260506175010 61 0 1.0 8.0 0.07 0.10 0.10 91 1006.8
20260506174530 61 0 1.0 8.0 0.06 0.09 0.09 90 1006.8
20260506174013 62 305 2.0 8.0 0.05 0.08 0.08 90 1006.8
20260506173511 62 201 1.0 6.0 0.04 0.07 0.07 90 1006.8
20260506173037 62 0 1.0 6.0 0.03 0.06 0.06 89 1006.7
20260506172511 62 171 0.0 9.0 0.04 0.06 0.06 89 1006.7
20260506172013 62 233 2.0 9.0 0.04 0.05 0.05 89 1006.7
20260506171532 62 188 1.0 8.0 0.03 0.04 0.04 89 1006.8
20260506171013 62 15 0.0 8.0 0.02 0.03 0.03 88 1006.6
20260506170516 62 205 0.0 8.0 0.03 0.03 0.03 88 1006.7
20260506170028 62 178 0.0 8.0 0.03 0.03 0.03 89 1006.6
20260506165513 63 0 0.0 6.0 0.03 0.03 0.03 89 1006.8
20260506165014 63 180 1.0 6.0 0.03 0.03 0.03 89 1006.9
20260506164529 63 0 0.0 7.0 0.03 0.03 0.03 89 1006.8